[[{"header":{"parameterUnit":"m.s-1","parameterCategory":1,"la1":30.2991,"la2":30.254,"lo1":-89.0895,"lo2":-89.0444,"dy":0.0017,"dx":0.0017,"nx":28,"ny":28,"refTime":"2023-09-14T09:00:00:Z","depth":0,"parameterNumber":2,"parameterNumberName":"U-component_of_WINDS"},"data":[0,0,0,0,0,0,0,0,0,0,0,0,0,0,0,0,0,0,0,0,0,0,0,0,0,0,0,0,0,0,0,0,0,0,0,0,0,0,0,0,0,0,0,0,0,0,0,0,0,0,0,0,0,0,0,0,0,0,-0.3877,-0.3877,0,-0.386,-0.386,-0.386,-0.3818,-0.3817,-0.3816,-0.3815,-0.3799,-0.3799,-0.38,0,0,0,0,0,0,0,0,0,0,0,0,0,-0.3874,-0.3874,-0.3877,-0.3877,-0.3877,-0.386,-0.386,-0.386,-0.3818,-0.3817,-0.3816,-0.3815,-0.3799,-0.3799,-0.38,0,0,0,0,0,0,0,0,0,0,0,0,0,-0.3868,-0.3874,-0.3877,-0.3854,-0.3852,-0.3861,-0.386,-0.386,-0.3818,-0.3817,-0.3815,-0.3814,-0.3799,-0.3799,-0.38,-0.383,0,0,-0.3802,-0.3802,0,0,0,0,0,0,0,0,-0.3869,-0.3868,-0.3858,-0.3856,-0.3853,-0.384,-0.3853,-0.385,-0.3819,-0.3831,-0.3815,-0.3814,-0.3814,-0.3813,-0.3813,-0.383,-0.3829,-0.3802,-0.3802,-0.3802,-0.3802,0,0,0,0,0,0,0,-0.3869,-0.3869,-0.3871,-0.3857,-0.3855,-0.3844,-0.3842,-0.3852,-0.383,-0.383,-0.3827,-0.3825,-0.3812,-0.3812,-0.3812,-0.3829,-0.3802,-0.3802,-0.3803,-0.3803,-0.3869,-0.3871,0,0,0,0,0,0,-0.3873,-0.3869,-0.3871,-0.387,-0.3858,-0.3846,-0.3843,-0.3845,-0.383,-0.3826,-0.3826,-0.3823,-0.3812,-0.3811,-0.3811,-0.3846,-0.3802,-0.3803,-0.3803,-0.3868,-0.387,-0.3871,0,0,0,0,0,0,-0.3873,-0.3873,-0.3872,-0.3869,-0.3868,-0.3847,-0.385,-0.3846,-0.3846,-0.3827,-0.3823,-0.383,-0.3811,-0.381,-0.3826,-0.3845,-0.3803,-0.3804,-0.3866,-0.3869,-0.3871,-0.3915,0,0,0,0,0,0,-0.3873,-0.3873,-0.3885,-0.3869,-0.3868,-0.3887,-0.3851,-0.3846,-0.3847,-0.3843,-0.383,-0.3827,-0.381,-0.3825,-0.3826,-0.3845,-0.3804,-0.3865,-0.3867,-0.387,-0.3912,-0.3918,-0.3924,0,0,0,0,0,-0.3873,-0.3898,-0.3885,-0.3886,-0.3882,-0.3888,-0.3887,-0.3867,-0.3849,-0.386,-0.3848,-0.3827,-0.3842,-0.3827,-0.3828,-0.3847,-0.3863,-0.3867,-0.387,-0.3909,-0.3917,-0.3924,0,0,0,0,0,0,-0.3917,-0.3896,-0.3881,-0.3903,-0.3897,-0.3881,-0.3894,-0.3876,-0.3876,-0.3872,-0.3847,-0.3845,-0.3863,-0.3857,-0.384,-0.3875,-0.3849,-0.3853,-0.3879,-0.3887,-0.3893,-0.3894,-0.3805,0,0,0,0,0,-0.3929,-0.3935,-0.3916,-0.3937,-0.3935,-0.3915,-0.3917,-0.3902,-0.3895,-0.3893,-0.3882,-0.3877,-0.388,-0.3883,-0.3885,-0.3911,-0.3907,-0.3924,-0.393,-0.3936,-0.3939,-0.3951,-0.3959,-0.3882,-0.3882,-0.3882,0,0,-0.3954,-0.3943,-0.3949,-0.3945,-0.3939,-0.3947,-0.3913,-0.3922,-0.3927,-0.3894,-0.3908,-0.39,-0.3892,-0.3913,-0.3921,-0.3908,-0.3959,-0.394,-0.3944,-0.3944,-0.3955,-0.3963,-0.3969,-0.3884,-0.3883,-0.3883,0,0,-0.4003,-0.3996,-0.4012,-0.4006,-0.3997,-0.3984,-0.3988,-0.3974,-0.3967,-0.398,-0.3955,-0.3961,-0.3968,-0.3964,-0.3962,-0.401,-0.3991,-0.4011,-0.4043,-0.4056,-0.4062,-0.4067,-0.4084,-0.409,-0.4015,-0.4015,-0.4015,0,-0.4035,-0.4044,-0.4022,-0.4033,-0.4032,-0.4002,-0.4018,-0.4014,-0.4007,-0.4007,-0.3992,-0.4,-0.3993,-0.4011,-0.4023,-0.4023,-0.4027,-0.4013,-0.4063,-0.4068,-0.4073,-0.4088,-0.4094,-0.4017,-0.4017,-0.4017,-0.4017,0,-0.4084,-0.4091,-0.4105,-0.4099,-0.41,-0.4113,-0.4093,-0.4097,-0.4082,-0.407,-0.4084,-0.4074,-0.4074,-0.4077,-0.4063,-0.4094,-0.4086,-0.4067,-0.4041,-0.4083,-0.4097,-0.4103,-0.4021,-0.402,-0.4019,-0.4019,0,0,-0.416,-0.4141,-0.4146,-0.4143,-0.4131,-0.4136,-0.4148,-0.4147,-0.4151,-0.4147,-0.4156,-0.4163,-0.4146,-0.4144,-0.4129,-0.414,-0.4178,-0.412,-0.4119,-0.4131,-0.4211,-0.4225,-0.4232,-0.4165,-0.4166,-0.4167,-0.4212,0,-0.4206,-0.4225,-0.4205,-0.4228,-0.4234,-0.4206,-0.4217,-0.4211,-0.42,-0.4204,-0.4192,-0.4197,-0.4174,-0.4173,-0.4183,-0.4171,-0.4194,-0.4168,-0.4174,-0.4174,-0.4176,-0.424,-0.4254,-0.4297,-0.4217,-0.4218,-0.4219,0,-0.4262,-0.426,-0.4284,-0.427,-0.4272,-0.4282,-0.4279,-0.4283,-0.4276,-0.4268,-0.4266,-0.4248,-0.4259,-0.4233,-0.4248,-0.4231,-0.4232,-0.4227,-0.4228,-0.4227,-0.4199,-0.424,-0.431,-0.4316,-0.4227,-0.4227,-0.4226,0,-0.4314,-0.4318,-0.4332,-0.433,-0.4315,-0.4322,-0.4316,-0.4308,-0.4308,-0.4307,-0.4307,-0.4307,-0.4306,-0.4307,-0.4289,-0.4272,-0.4306,-0.4279,-0.4299,-0.43,-0.4307,-0.4307,-0.4377,-0.4309,-0.4309,-0.4309,-0.4309,0,-0.4367,-0.4383,-0.4356,-0.4364,-0.4381,-0.4358,-0.4375,-0.4367,-0.4359,-0.4366,-0.4342,-0.4349,-0.4325,-0.4329,-0.4315,-0.433,-0.433,-0.4323,-0.4319,-0.4325,-0.4326,-0.4325,-0.4322,-0.431,-0.431,-0.431,-0.4309,0,-0.4428,-0.4411,-0.4425,-0.4409,-0.4405,-0.4418,-0.4405,-0.4412,-0.44,-0.4409,-0.441,-0.4391,-0.4395,-0.4377,-0.4379,-0.4369,-0.439,-0.4382,-0.4393,-0.439,-0.4411,-0.4409,-0.4483,-0.4491,-0.4418,-0.4419,-0.442,0,-0.4463,-0.4474,-0.4459,-0.4462,-0.4457,-0.4462,-0.4462,-0.4441,-0.4442,-0.4435,-0.4443,-0.4445,-0.4446,-0.4454,-0.444,-0.4441,-0.4432,-0.4458,-0.4432,-0.4437,-0.4431,-0.4431,-0.4432,-0.4463,-0.4464,-0.4465,-0.4465,0,-0.4526,-0.4517,-0.4518,-0.4517,-0.4518,-0.4516,-0.4512,-0.4516,-0.4493,-0.4496,-0.4499,-0.45,-0.4501,-0.4503,-0.4501,-0.4495,-0.4476,-0.4474,-0.4478,-0.4484,-0.4489,-0.4486,-0.4407,-0.4472,-0.4471,-0.4471,-0.447,-0.447,-0.4574,-0.4583,-0.4574,-0.4576,-0.4571,-0.4568,-0.4575,-0.4563,-0.4566,-0.4564,-0.4552,-0.4558,-0.455,-0.4545,-0.4541,-0.4546,-0.4534,-0.454,-0.4542,-0.4544,-0.4547,-0.4489,-0.4545,-0.4545,-0.4545,-0.4545,-0.4545,0,-0.4636,-0.4628,-0.4631,-0.4626,-0.4628,-0.4611,-0.4606,-0.4609,-0.4614,-0.4608,-0.4609,-0.4613,-0.4615,-0.4602,-0.4603,-0.4609,-0.46,-0.4609,-0.4608,-0.4607,-0.4559,-0.4554,-0.4616,-0.4616,-0.4616,-0.4616,-0.4616,-0.4616,-0.4668,-0.4681,-0.4671,-0.4681,-0.4674,-0.4679,-0.4678,-0.4675,-0.467,-0.4676,-0.4677,-0.4669,-0.466,-0.4659,-0.4661,-0.4657,-0.4658,-0.467,-0.4663,-0.4618,-0.4611,-0.4604,-0.46,-0.4671,-0.4671,-0.4711,-0.4712,-0.4712]},{"header":{"parameterUnit":"m.s-1","parameterCategory":1,"la1":30.2991,"la2":30.254,"lo1":-89.0895,"lo2":-89.0444,"dy":0.0017,"dx":0.0017,"nx":28,"ny":28,"refTime":"2023-09-14T09:00:00:Z","depth":0,"parameterNumber":3,"parameterNumberName":"V-component_of_WINDS"},"data":[0,0,0,0,0,0,0,0,0,0,0,0,0,0,0,0,0,0,0,0,0,0,0,0,0,0,0,0,0,0,0,0,0,0,0,0,0,0,0,0,0,0,0,0,0,0,0,0,0,0,0,0,0,0,0,0,0,0,0.3087,0.3087,0,0.305,0.305,0.3049,0.3034,0.3035,0.3035,0.3035,0.2998,0.2997,0.2996,0,0,0,0,0,0,0,0,0,0,0,0,0,0.3145,0.3144,0.3087,0.3087,0.3086,0.305,0.305,0.3049,0.3034,0.3035,0.3035,0.3035,0.2998,0.2997,0.2996,0,0,0,0,0,0,0,0,0,0,0,0,0,0.3115,0.3143,0.3087,0.3074,0.3073,0.305,0.305,0.3049,0.3034,0.3035,0.3035,0.3035,0.2998,0.2997,0.2995,0.2983,0,0,0.299,0.299,0,0,0,0,0,0,0,0,0.3117,0.3113,0.3077,0.3075,0.3074,0.3047,0.3056,0.3027,0.3034,0.3049,0.3035,0.3035,0.3014,0.3011,0.3004,0.2981,0.298,0.299,0.2989,0.2989,0.2988,0,0,0,0,0,0,0,0.3119,0.3114,0.3073,0.3076,0.3074,0.3071,0.3066,0.3051,0.3031,0.3048,0.3047,0.3042,0.3013,0.3006,0.3003,0.2979,0.299,0.2989,0.2988,0.2987,0.2943,0.2943,0,0,0,0,0,0,0.3123,0.3116,0.3074,0.3071,0.3096,0.3069,0.3065,0.3055,0.3031,0.3028,0.3042,0.3042,0.3008,0.3005,0.3002,0.2985,0.2989,0.2987,0.2986,0.2943,0.2943,0.2943,0,0,0,0,0,0,0.3124,0.3119,0.3075,0.3093,0.3088,0.3068,0.3058,0.3055,0.3047,0.3027,0.3024,0.3038,0.3008,0.3004,0.2987,0.2983,0.2986,0.2985,0.2944,0.2943,0.2943,0.2951,0,0,0,0,0,0,0.3126,0.312,0.3115,0.3093,0.3087,0.3062,0.3058,0.3054,0.3044,0.3043,0.3022,0.3019,0.3008,0.299,0.2986,0.2981,0.2984,0.2944,0.2943,0.2943,0.2951,0.2951,0.2951,0,0,0,0,0,0.3128,0.3119,0.3115,0.311,0.308,0.3061,0.3057,0.3045,0.3044,0.3039,0.3026,0.302,0.2984,0.2988,0.2984,0.2978,0.2944,0.2944,0.2943,0.2951,0.2951,0.2951,0,0,0,0,0,0,0.3141,0.3116,0.3111,0.3095,0.308,0.3059,0.3052,0.3045,0.3031,0.303,0.3015,0.3011,0.2995,0.2985,0.299,0.2964,0.2964,0.2962,0.2971,0.2971,0.2971,0.2974,0.2982,0,0,0,0,0,0.3142,0.3129,0.3108,0.3096,0.3089,0.3072,0.3063,0.3054,0.3039,0.3032,0.3018,0.3004,0.2989,0.298,0.2965,0.295,0.2945,0.2944,0.2944,0.2944,0.2943,0.2933,0.2932,0.2941,0.2941,0.2941,0,0,0.3145,0.3129,0.3122,0.3098,0.3086,0.3072,0.3067,0.3053,0.3042,0.303,0.3013,0.3003,0.2985,0.2969,0.2961,0.296,0.2939,0.2943,0.2943,0.2942,0.2932,0.2931,0.293,0.2941,0.2941,0.2941,0,0,0.3141,0.3129,0.3117,0.3104,0.3085,0.3073,0.3071,0.305,0.3042,0.3025,0.3015,0.3003,0.2978,0.2965,0.2956,0.2947,0.294,0.2942,0.2942,0.2933,0.2932,0.2931,0.2927,0.2926,0.2941,0.2941,0.2941,0,0.3146,0.3125,0.3111,0.3097,0.3087,0.3075,0.3062,0.3051,0.3028,0.3021,0.3021,0.2989,0.2976,0.2956,0.2953,0.2947,0.2942,0.2945,0.2933,0.2932,0.2931,0.2927,0.2926,0.2942,0.2942,0.2942,0.2942,0,0.3132,0.3117,0.311,0.3088,0.3076,0.3063,0.3047,0.3037,0.3029,0.3018,0.3,0.2984,0.2966,0.2961,0.2953,0.2939,0.2939,0.2936,0.2935,0.2931,0.2927,0.2925,0.2942,0.2942,0.2942,0.2942,0,0,0.3137,0.3106,0.3103,0.3092,0.307,0.3058,0.3045,0.3026,0.3017,0.3002,0.299,0.2969,0.2965,0.2954,0.2945,0.2937,0.2929,0.2934,0.2934,0.2933,0.2912,0.2914,0.2912,0.2925,0.2925,0.2924,0.2913,0,0.313,0.3104,0.309,0.307,0.3056,0.3044,0.3031,0.3016,0.3005,0.2991,0.2979,0.2964,0.2961,0.2954,0.2945,0.2932,0.2925,0.2933,0.2913,0.2912,0.2917,0.291,0.2912,0.2902,0.2911,0.2911,0.2911,0,0.3118,0.3102,0.308,0.3058,0.3052,0.3041,0.3022,0.3009,0.2992,0.2984,0.2971,0.2962,0.2946,0.2947,0.2925,0.2931,0.2922,0.2914,0.2913,0.291,0.2911,0.2906,0.2899,0.2897,0.2908,0.2908,0.2908,0,0.3123,0.3095,0.3078,0.307,0.3044,0.3036,0.3025,0.3008,0.2997,0.2981,0.2974,0.2956,0.2946,0.2933,0.2919,0.2921,0.2898,0.2897,0.2891,0.2891,0.2886,0.2887,0.2877,0.2882,0.2882,0.2882,0.2882,0,0.3116,0.3103,0.308,0.3069,0.3054,0.3039,0.3024,0.3012,0.2996,0.2983,0.2972,0.296,0.2942,0.2928,0.2917,0.29,0.2896,0.2889,0.2886,0.289,0.289,0.2883,0.2883,0.2881,0.2882,0.2882,0.2882,0,0.3118,0.3102,0.3083,0.306,0.3053,0.3043,0.3023,0.3012,0.3,0.2983,0.2979,0.296,0.2942,0.2927,0.2904,0.2897,0.2879,0.2876,0.2884,0.2883,0.2877,0.2877,0.2861,0.2858,0.2866,0.2866,0.2866,0,0.3115,0.3104,0.3079,0.3069,0.3058,0.3042,0.3031,0.3015,0.3004,0.2982,0.2974,0.2955,0.2939,0.2912,0.2896,0.2878,0.2874,0.287,0.2871,0.2875,0.2873,0.2873,0.2872,0.287,0.287,0.287,0.287,0,0.311,0.3102,0.3086,0.3067,0.3053,0.3038,0.3022,0.3014,0.2995,0.2983,0.2964,0.2952,0.2928,0.2909,0.289,0.2878,0.287,0.2869,0.2866,0.2869,0.2874,0.2871,0.2883,0.2869,0.2869,0.2869,0.2869,0.2869,0.3108,0.3098,0.3078,0.306,0.3046,0.3031,0.302,0.3005,0.299,0.2968,0.296,0.2941,0.2922,0.2895,0.2883,0.2868,0.2867,0.2863,0.2862,0.2861,0.2861,0.2877,0.2864,0.2864,0.2864,0.2864,0.2864,0,0.3102,0.3089,0.3072,0.305,0.3035,0.3029,0.301,0.2999,0.2982,0.2965,0.2949,0.2927,0.2909,0.2891,0.2872,0.2863,0.2859,0.2858,0.2859,0.2856,0.2864,0.2868,0.2862,0.2862,0.2862,0.2862,0.2862,0.2862,0.3097,0.3079,0.3068,0.3042,0.3029,0.301,0.2999,0.2985,0.2972,0.2947,0.2932,0.292,0.2903,0.2882,0.2865,0.286,0.2853,0.2853,0.2847,0.2855,0.2856,0.2856,0.2859,0.2852,0.2852,0.284,0.284,0.284]}]]